Weather in Tambitsy

Russia / Republic of Karelia     62°29′34″N   36°09′19″E
temp.,
°C
wind,
m/s
gust,
m/s
humid.,
%
clouds,
%
prec.,
mm/h
press.,
hPa
HPBL,
m
31 july, sat
sat3100:00+13ssw228296 0.0 99837
03:00+13ssw2383100 0.0 99769
06:00+14sse2582100 0.0 996144
09:00+20ssw245844 0.0 995817
12:00+18sw467912 3.0 995956
15:00+20sw445213 3.5 9951470
18:00+18wsw34623 0.0 996945
21:00+13sw23925 0.0 99758
1 august, sun
sun100:00+12sw12960 0.0 99919
03:00+12sw22960 0.0 100030
06:00+14ssw268699 0.0 1001175
09:00+18sw466637 0.0 1001649
12:00+22sw56485 0.0 10011527
15:00+22sw474999 0.1 10011704
18:00+15sw41095100 2.2 1000434
21:00+14s2897100 2.5 1000247
2 august, mon
mon200:00+13s299810 0.0 1000216
03:00+14sw31098100 0.0 1001514
06:00+15sw4997100 0.4 1001634
09:00+15sw4995100 0.6 1003629
12:00+16ssw4890100 0.2 1004727
15:00+20sw4657100 0.3 10031363
18:00+20sw2552100 0.0 1003987
21:00+16ese1169100 0.0 100211
3 august, tue
tue300:00+14e2494100 1.0 100096
03:00+14ne2699100 5.3 998228
06:00+14nne3998100 2.7 995616
09:00+14nnw5998100 7.4 994499
12:00+13wnw4998100 9.4 996591
15:00+16wnw5984100 9.8 998876
18:00+19wsw3664100 0.0 1000987
21:00+15sw398376 0.0 1000282
4 august, wed
wed400:00+12sw27965 0.0 1001166
03:00+12w2510086 0.1 1003214
06:00+12nw3696100 0.3 1005355
09:00+12nw2590100 0.3 1007440
12:00+14wnw357683 0.2 1009947
15:00+15nw466593 0.7 10121203
18:00+12nnw357365 0.1 1014819
21:00+9n23853 0.1 101652